Location: Unspecified
(0.0000°N, 0.0000°E)
Time: 01:36:37
(UTC+00:00)

S-56A Canister/Altair - Pass Details

Date: 20 November 2019
Orbit: 633 x 2499 km, 38.9° (Epoch: 10 December)

Event Time Altitude Azimuth Distance (km) Brightness Sun altitude
Rises 23:14:54 0° 344° (NNW) 2,942 - -68.8°
Reaches altitude 10° 23:18:32 10° 15° (NNE) 1,997 - -69.1°
Maximum altitude 23:20:27 13° 41° (NE) 1,856 - -69.3°
Drops below altitude 10° 23:22:25 10° 67° (ENE) 2,071 - -69.4°
Sets 23:26:20 0° 96° (E) 3,173 - -69.6°
